This demonstration page uses our WeatherBlox Daily Observations layout. Learn more.

Left ArrowRight Arrow

41.12389, -100.76542

Hourly Observations for August 26, 2019

Temp ( °F °C ) Dew Point ( °F °C ) Humidity (%) Winds ( mph kmh ) Pressure ( in mb ) Visibility ( mi km ) Precip ( " mm )
12:12 am 00:12 Cloudy 71 21.7 68 20 90 90 SSE 9 15 29.64 1004 10 16 0.00 0.00
12:53 am 00:53 Cloudy 72 22.2 68 20 87 87 S 15 24 29.67 1005 10 16 0.00 0.00
1:53 am 01:53 Cloudy 71 21.7 67 19.4 87 87 S 18 30 29.67 1005 10 16 0.00 0.00
2:53 am 02:53 Cloudy 70 21.1 67 19.4 90 90 S 13 20 29.63 1004 10 16 0.00 0.00
3:53 am 03:53 Cloudy 70 21.1 67 19.4 90 90 NNE 8 13 29.66 1004 10 16 0.00 0.00
4:53 am 04:53 Cloudy with Light Rain 69 20.6 67 19.4 93 93 N 7 11 29.70 1006 7 11 0.01 0.25
5:13 am 05:13 Cloudy 67 19.4 64 17.8 91 91 N 12 19 29.70 1006 10 16 0.00 0.00
5:26 am 05:26 Cloudy 67 19.4 63 17.2 87 87 N 18 30 29.70 1006 10 16 0.00 0.00
5:53 am 05:53 Cloudy 66 18.9 63 17.2 90 90 NNE 20 31 29.71 1006 10 16 0.00 0.00
6:12 am 06:12 Cloudy 66 18.9 63 17.2 90 90 NE 18 30 29.70 1006 10 16 0.00 0.00
6:23 am 06:23 Mostly Cloudy 65 18.3 63 17.2 93 93 NE 17 28 29.71 1006 10 16 0.00 0.00
6:35 am 06:35 Partly Cloudy 65 18.3 62 16.7 90 90 NE 12 19 29.72 1006 10 16 0.00 0.00
6:43 am 06:43 Mostly Clear 64 17.8 62 16.7 93 93 NNE 12 19 29.73 1007 10 16 0.00 0.00
6:53 am 06:53 Mostly Clear 64 17.8 61 16.1 90 90 NNE 8 13 29.75 1008 10 16 0.00 0.00
7:09 am 07:09 Mostly Cloudy 64 17.8 61 16.1 90 90 NNE 10 17 29.75 1008 10 16 0.00 0.00
7:19 am 07:19 Cloudy 64 17.8 61 16.1 90 90 NNE 12 19 29.76 1008 10 16 0.00 0.00
7:53 am 07:53 Mostly Cloudy 64 17.8 61 16.1 90 90 ENE 8 13 29.79 1009 10 16 0.00 0.00
8:01 am 08:01 Partly Cloudy 64 17.8 61 16.1 90 90 NE 8 13 29.78 1009 10 16 0.00 0.00
8:16 am 08:16 Mostly Cloudy 65 18.3 61 16.1 87 87 N 7 11 29.79 1009 10 16 0.00 0.00
8:53 am 08:53 Cloudy 63 17.2 60 15.6 90 90 N 15 24 29.85 1011 10 16 0.00 0.00
9:14 am 09:14 Cloudy 63 17.2 59 15 87 87 N 13 20 29.85 1011 10 16 0.00 0.00
9:53 am 09:53 Cloudy 64 17.8 59 15 84 84 N 13 20 29.88 1012 10 16 0.00 0.00
10:04 am 10:04 Cloudy 65 18.3 59 15 81 81 N 14 22 29.85 1011 10 16 0.00 0.00
10:53 am 10:53 Cloudy 68 20 60 15.6 76 76 N 13 20 29.88 1012 10 16 0.00 0.00
11:23 am 11:23 Mostly Sunny 70 21.1 59 15 68 68 NNE 14 22 29.83 1010 10 16 0.00 0.00
11:53 am 11:53 Sunny 72 22.2 59 15 64 64 N 16 26 29.87 1012 10 16 0.00 0.00
12:53 pm 12:53 Sunny 75 23.9 58 14.4 55 55 NNE 15 24 29.87 1011 10 16 0.00 0.00
1:53 pm 13:53 Partly Cloudy 75 23.9 58 14.4 55 55 NNE 15 24 29.88 1012 10 16 0.00 0.00
2:53 pm 14:53 Partly Cloudy 76 24.4 57 13.9 52 52 NNE 15 24 29.88 1012 10 16 0.00 0.00
3:53 pm 15:53 Partly Cloudy 77 25 56 13.3 48 48 NNE 16 26 29.88 1012 10 16 0.00 0.00
4:53 pm 16:53 Partly Cloudy 77 25 56 13.3 48 48 N 16 26 29.88 1012 10 16 0.00 0.00
5:53 pm 17:53 Mostly Sunny 76 24.4 56 13.3 50 50 NE 8 13 29.89 1012 10 16 0.00 0.00
6:53 pm 18:53 Mostly Cloudy 75 23.9 56 13.3 52 52 NNE 7 11 29.90 1013 10 16 0.00 0.00
7:53 pm 19:53 Sunny 69 20.6 58 14.4 68 68 NE 7 11 29.93 1014 10 16 0.00 0.00
8:53 pm 20:53 Clear 65 18.3 57 13.9 76 76 ENE 5 7 29.98 1015 10 16 0.00 0.00
9:53 pm 21:53 Clear 63 17.2 57 13.9 81 81 S 3 6 30.01 1016 10 16 0.00 0.00
10:53 pm 22:53 Clear 60 15.6 55 12.8 84 84 S 3 6 30.02 1017 10 16 0.00 0.00
11:53 pm 23:53 Clear 61 16.1 52 11.1 72 72 Calm 30.01 1016 10 16 0.00 0.00

Powered by AerisWeather